Location: Unspecified
(0.0000°N, 0.0000°E)
Time: 06:41:21
(UTC+00:00)

Vanguard 1 - Pass Details

Date: 14 December 2017
Orbit: 650 x 3833 km, 34.3° (Epoch: 22 June)

Event Time Altitude Azimuth Distance (km) Brightness Sun altitude
Rises 06:18:55 0° 240° (WSW) 6,942 14.0 5.6°
Reaches altitude 10° 06:23:04 10° 242° (WSW) 6,222 13.8 6.5°
Maximum altitude 06:44:54 69° 322° (NW) 3,990 13.1 11.5°
Drops below altitude 10° 07:06:34 10° 44° (NE) 6,136 14.4 16.5°
Sets 07:10:41 0° 47° (NE) 6,842 14.7 17.4°
